Regional Weather Roundup
Issued by NWS

Home | Current Version | Previous Version | Graphics & Text | Print | Product List | Glossary On
Versions: 1 2 3 4 5 6 7 8 9 10 11 12 13 14 15 16 17 18 19 20 21 22 23 24 25 26 27 28 29 30 31 32 33 34 35 36 37 38 39 40 41 42 43 44 45 46 47 48 49 50
000
ASUS43 KIND 180109
RWRIN

WEATHER ROUNDUP FOR INDIANA
NATIONAL WEATHER SERVICE INDIANAPOLIS IN
800 PM EST TUE JAN 17 2017

NOTE: "FAIR" INDICATES FEW OR NO CLOUDS BELOW 12,000 FEET WITH NO
SIGNIFICANT WEATHER AND/OR OBSTRUCTIONS TO VISIBILITY.

* - STATION DOES NOT REPORT WEATHER SUCH AS PRECIPITATION OR FOG.

+ - STATION NOT QUALITY CONTROLLED BY THE NATIONAL WEATHER SERVICE.
    USE DATA WITH CAUTION...ESPECIALLY DEWPOINT AND RELATIVE
    HUMIDITY OBSERVATIONS.

INZ001>003-010>013-019-020-180200-
NORTHWEST INDIANA

CITY           SKY/WX    TMP DP  RH WIND       PRES   REMARKS
GARY /AIRPORT/ CLOUDY    37  36  93 W14G26    29.99R FOG
KNOX *+        CLOUDY    36  28  75 W16       29.99R
LA PORTE +     CLOUDY    36  35  96 W10       29.98R FOG
MICHIGAN CITY+ CLOUDY    36  36 100 W10       29.98R FOG
MONTICELLO +   CLOUDY    37  36  94 W14G21    30.01R
RENSSELAER +   CLOUDY    36  36 100 W15G23    30.01R
VALPARAISO     CLOUDY    37  36  96 W13       29.99R FOG

$$

LMZ046-743>745-180200-
SOUTHERN LAKE MICHIGAN

STATION/POSITION TIME  TEMP    WIND        PRES    WAVE
                       AIR SEA DIR/SP/G            HT
                 (UTC) (F)     (DEG/KT/KT) (MB)    (FT)
BURNS HARBOR     0040   36     250/ 15/ 18 1015.6R

$$

INZ004-005-014>016-021>024-180200-
NORTH CENTRAL INDIANA

CITY           SKY/WX    TMP DP  RH WIND       PRES   REMARKS
ELKHART        CLOUDY    37  36  93 W14       29.95R FOG
GOSHEN         CLOUDY    38  35  89 W13       29.95R FOG
LOGANSPORT +   DRIZZLE   37  36  93 W15       30.01S
PERU/GRISSOM   DRIZZLE   39  39 100 W14       29.98R
ROCHESTER +    CLOUDY    39  39 100 W13G23    29.99R FOG
SOUTH BEND     LGT RAIN  36  36 100 W15       29.97R FOG
WARSAW +       DRIZZLE   37  32  81 W14       29.97R

$$

INZ006>009-017-018-025>027-180200-
NORTHEAST INDIANA

CITY           SKY/WX    TMP DP  RH WIND       PRES   REMARKS
ANGOLA *+      CLOUDY    37  37 100 W12       29.93R
AUBURN +       CLOUDY    39  37  93 W10G16    29.95S FOG
FORT WAYNE     LGT RAIN  42  39  89 W17G23    29.97R FOG
HUNTINGTON +   CLOUDY    40  39  97 W16       29.97R
KENDALLVILLE + CLOUDY    38  38 100 W17       29.93S FOG

$$

INZ028-029-035-036-043>045-051>053-180200-
WEST CENTRAL INDIANA

CITY           SKY/WX    TMP DP  RH WIND       PRES   REMARKS
CRAWFORDSVL +  CLOUDY    38  38 100 W13       30.04R FOG
GREENCASTLE +  CLOUDY    41  41 100 W7        30.04S FOG
LAFAYETTE      CLOUDY    38  37  97 W12       30.03R
TERRE HAUTE    CLOUDY    42  39  89 W12       30.07R

$$

INZ030>032-037>040-046>048-054>057-064-065-180200-
CENTRAL INDIANA

CITY           SKY/WX    TMP DP  RH WIND       PRES   REMARKS
CP ATTERBURY + CLOUDY    43  41  93 W7        30.05R
COLUMBUS       CLOUDY    45  45 100 W10       30.05R
FISHERS *+     CLOUDY    41  41 100 W10G16    30.03
FRANKFORT +    LGT RAIN  41  40  95 W14       30.03S
GREENWOOD *+   CLOUDY    44  43  95 W13       30.04R
INDIANAPOLIS   DRIZZLE   43  41  93 W16       30.03R
-EAGLE CREEK   CLOUDY    43  40  89 W9        30.02R
KOKOMO +       LGT RAIN  39  38  96 W18       30.01R FOG
MARION +       CLOUDY    41  39  93 W16G22    30.00R FOG
MT COMFORT *+  CLOUDY    43  39  87 W10       30.02R
SHELBYVILLE    CLOUDY    45  41  86 W10       30.02S
ZIONSVILLE +   CLOUDY    41  40  96 W14       30.02R FOG

$$

INZ033-034-041-042-049-050-058-059-180200-
EAST CENTRAL INDIANA

CITY           SKY/WX    TMP DP  RH WIND       PRES   REMARKS
MUNCIE         CLOUDY    44  41  89 W15       29.99R FOG

$$

INZ060-061-067>069-081>083-085>088-180200-
SOUTHWEST INDIANA

CITY           SKY/WX    TMP DP  RH WIND       PRES   REMARKS
EVANSVILLE     CLOUDY    44  40  85 W8        30.13R
HUNTINGBURG *+ CLOUDY    43  39  87 W13       30.11R
WASHINGTON +   DRIZZLE   43  41  94 W10       30.09R

$$

INZ062-063-066-070>080-084-089>092-180200-
SOUTH CENTRAL AND SOUTHEAST INDIANA

CITY           SKY/WX    TMP DP  RH WIND       PRES   REMARKS
BLOOMINGTON    CLOUDY    44  40  85 W10       30.05R
MADISON *+     CLOUDY    45  39  81 SW12      30.07S
NORTH VERNON + CLOUDY    46  46 100 SW12      30.05R
SEYMOUR +      CLOUDY    46  41  81 SW6       30.06S

$$




USA.gov is the U.S. government's official web portal to all federal, state and local government web resources and services.